Flag for U.S.A. Weather past 2 weeks in Warminster Township, Pennsylvania, U.S.A.

Now
12 °F

Clear.


Feels Like: 12 °F
Forecast: 12 / 32 °F
Wind: No wind

Location: Doylestown Airport

Current Time: Mar 1, 2015 at 2:28:17 AM

Latest Report: Mar 1, 2015 at 1:54 AM


Visibility: 10 mi

Pressure: 30.73 "Hg

Humidity: 67%

Dew point: 3 °F

Location of Warminster TownshipLocation

Historic Weather in Warminster Township — Graph

°F

Warminster Township temperature yesterday

Maximum temperature yesterday: 26 °F (at 1:54 PM)
Minimum temperature yesterday: 9 °F (at 5:54 AM)
Average temperature yesterday: 17 °F

Past Weeks' High & Low Weather Summary

 TemperatureHumidityPressure
High42 °F (Feb 22, 2:54 PM)100% (Feb 14, 7:54 PM)30.85 "Hg (Feb 14, 7:54 PM)
Low-3 °F (Feb 20, 6:54 AM)25% (Feb 28, 3:54 PM)29.49 "Hg (Feb 14, 8:54 PM)
Average17 °F62%30.14 "Hg
* Reported Feb 14 12:54 AM — Mar 1 12:54 AM, Warminster Township, Weather by CustomWeather, © 2015

Note: Actual official high and low records may vary slightly from our data, if they occured in-between our weather recording intervals... More about our weather records

Advertising

Warminster Township weather history for previous 24 hours

 ConditionsComfort  
Time TempWeatherWind HumidityBarometerVisibility
12:54 AM
Sun, Mar 1
13 °FClear.No wind61%30.72 "Hg10 mi
11:54 PM
Sat, Feb 28
14 °FClear.No wind61%30.73 "Hg10 mi
10:54 PM14 °FClear.No wind64%30.76 "Hg10 mi
9:54 PM16 °FClear.No wind49%30.78 "Hg10 mi
8:54 PM17 °FClear.No wind47%30.77 "Hg10 mi
7:54 PM19 °FClear.No wind43%30.77 "Hg10 mi
6:54 PM21 °FClear.No wind38%30.77 "Hg10 mi
5:54 PM24 °FClear.3 mph29%30.77 "Hg10 mi
4:54 PM26 °FSunny.6 mph26%30.76 "Hg10 mi
3:54 PM26 °FSunny.3 mph25%30.76 "Hg10 mi
2:54 PM25 °FSunny.7 mph28%30.77 "Hg10 mi
1:54 PM26 °FSunny.8 mph32%30.79 "Hg10 mi
12:54 PM22 °FSunny.6 mph40%30.81 "Hg10 mi
11:54 AM21 °FSunny.5 mph40%30.84 "Hg10 mi
10:54 AM19 °FSunny.6 mph41%30.85 "Hg10 mi
9:54 AM17 °FSunny.8 mph41%30.84 "Hg10 mi
8:54 AM14 °FSunny.5 mph47%30.84 "Hg10 mi
7:54 AM10 °FSunny.7 mph53%30.82 "Hg10 mi
6:54 AM9 °FSunny.3 mph58%30.81 "Hg10 mi
5:54 AM9 °FClear.5 mph61%30.78 "Hg10 mi
4:54 AM10 °FClear.No wind58%30.76 "Hg10 mi
3:54 AM11 °FClear.5 mph56%30.72 "Hg10 mi
2:54 AM11 °FClear.5 mph59%30.68 "Hg10 mi
Weather by CustomWeather, © 2015

See weather overviewHow to use our weather pages